TimeEDT,TemperatureF,Dew PointF,Humidity,Sea Level PressureIn,VisibilityMPH,Wind Direction,Wind SpeedMPH,Gust SpeedMPH,PrecipitationIn,Events,Conditions,WindDirDegrees,DateUTC
12:15 AM,42.8,42.8,100,30.24,10.0,Calm,Calm,-,N/A,,Clear,0,2013-03-11 04:15:00
12:35 AM,42.8,42.8,100,30.24,10.0,Calm,Calm,-,N/A,,Clear,0,2013-03-11 04:35:00
12:55 AM,41.0,41.0,100,30.23,10.0,Calm,Calm,-,N/A,,Clear,0,2013-03-11 04:55:00
1:15 AM,41.0,41.0,100,30.22,10.0,Calm,Calm,-,N/A,,Scattered Clouds,0,2013-03-11 05:15:00
1:35 AM,41.0,41.0,100,30.23,10.0,Calm,Calm,-,N/A,,Scattered Clouds,0,2013-03-11 05:35:00
1:55 AM,42.8,42.8,100,30.23,10.0,Calm,Calm,-,N/A,,Mostly Cloudy,0,2013-03-11 05:55:00
2:35 AM,44.6,44.6,100,30.21,10.0,Calm,Calm,-,N/A,,Overcast,0,2013-03-11 06:35:00
2:55 AM,44.6,44.6,100,30.20,10.0,Calm,Calm,-,N/A,,Mostly Cloudy,0,2013-03-11 06:55:00
3:15 AM,46.4,46.4,100,30.19,10.0,ENE,3.5,-,N/A,,Scattered Clouds,70,2013-03-11 07:15:00
3:55 AM,44.6,44.6,100,30.18,10.0,Calm,Calm,-,N/A,,Scattered Clouds,0,2013-03-11 07:55:00
4:15 AM,46.4,46.4,100,30.18,10.0,Calm,Calm,-,N/A,,Mostly Cloudy,0,2013-03-11 08:15:00
4:35 AM,46.4,46.4,100,30.17,10.0,Calm,Calm,-,N/A,,Overcast,0,2013-03-11 08:35:00
4:55 AM,48.2,48.2,100,30.16,10.0,Calm,Calm,-,N/A,,Mostly Cloudy,0,2013-03-11 08:55:00
5:15 AM,48.2,48.2,100,30.16,7.0,Calm,Calm,-,N/A,,Mostly Cloudy,0,2013-03-11 09:15:00
5:35 AM,48.2,48.2,100,30.16,7.0,Calm,Calm,-,N/A,,Mostly Cloudy,0,2013-03-11 09:35:00
6:15 AM,48.2,48.2,100,30.16,7.0,ENE,3.5,-,N/A,,Clear,70,2013-03-11 10:15:00
6:35 AM,48.2,48.2,100,30.16,5.0,Calm,Calm,-,N/A,,Clear,0,2013-03-11 10:35:00
6:55 AM,46.4,46.4,100,30.15,0.8,Calm,Calm,-,N/A,,Scattered Clouds,0,2013-03-11 10:55:00
7:15 AM,46.4,46.4,100,30.15,3.0,Calm,Calm,-,N/A,,Clear,0,2013-03-11 11:15:00
7:35 AM,48.2,48.2,100,30.14,1.0,Calm,Calm,-,N/A,,Mist,0,2013-03-11 11:35:00
7:55 AM,50.0,50.0,100,30.15,2.5,Calm,Calm,-,N/A,,Clear,0,2013-03-11 11:55:00
8:15 AM,50.0,50.0,100,30.15,5.0,Calm,Calm,-,N/A,,Mostly Cloudy,0,2013-03-11 12:15:00
8:35 AM,51.8,51.8,100,30.14,7.0,Calm,Calm,-,N/A,,Overcast,0,2013-03-11 12:35:00
8:55 AM,53.6,53.6,100,30.15,7.0,Calm,Calm,-,N/A,,Overcast,0,2013-03-11 12:55:00
9:15 AM,53.6,53.6,100,30.15,10.0,Calm,Calm,-,N/A,,Overcast,0,2013-03-11 13:15:00
9:35 AM,55.4,55.4,100,30.14,10.0,Calm,Calm,-,N/A,,Overcast,0,2013-03-11 13:35:00
9:55 AM,55.4,55.4,100,30.14,10.0,East,3.5,-,N/A,,Overcast,90,2013-03-11 13:55:00
10:15 AM,57.2,57.2,100,30.14,10.0,Calm,Calm,-,N/A,,Overcast,0,2013-03-11 14:15:00
10:35 AM,60.8,55.4,82,30.14,10.0,ESE,6.9,-,N/A,,Mostly Cloudy,110,2013-03-11 14:35:00
10:55 AM,64.4,55.4,73,30.13,10.0,ESE,6.9,-,N/A,,Scattered Clouds,110,2013-03-11 14:55:00
11:15 AM,69.8,55.4,60,30.13,10.0,SE,12.7,-,N/A,,Mostly Cloudy,140,2013-03-11 15:15:00
11:35 AM,69.8,53.6,56,30.13,10.0,SSE,12.7,20.7,N/A,,Overcast,150,2013-03-11 15:35:00
11:55 AM,69.8,53.6,56,30.13,10.0,SSE,16.1,21.9,N/A,,Overcast,160,2013-03-11 15:55:00
12:15 PM,69.8,53.6,56,30.12,10.0,SSE,12.7,21.9,N/A,,Mostly Cloudy,160,2013-03-11 16:15:00
12:35 PM,68.0,53.6,60,30.13,10.0,SSE,13.8,-,N/A,,Overcast,160,2013-03-11 16:35:00
12:55 PM,68.0,53.6,60,30.12,10.0,South,8.1,16.1,N/A,,Overcast,170,2013-03-11 16:55:00
1:15 PM,66.2,53.6,64,30.12,10.0,South,8.1,12.7,N/A,,Overcast,190,2013-03-11 17:15:00
1:35 PM,68.0,53.6,60,30.10,10.0,South,11.5,17.3,N/A,,Overcast,170,2013-03-11 17:35:00
1:55 PM,69.8,53.6,56,30.08,10.0,South,12.7,20.7,N/A,,Overcast,170,2013-03-11 17:55:00
2:15 PM,69.8,51.8,53,30.08,10.0,South,11.5,27.6,N/A,,Mostly Cloudy,180,2013-03-11 18:15:00
2:35 PM,69.8,53.6,56,30.07,10.0,SSE,11.5,-,N/A,,Mostly Cloudy,160,2013-03-11 18:35:00
2:55 PM,69.8,51.8,53,30.06,10.0,South,10.4,18.4,N/A,,Overcast,190,2013-03-11 18:55:00
3:15 PM,68.0,53.6,60,30.06,10.0,South,8.1,18.4,N/A,,Overcast,180,2013-03-11 19:15:00
3:35 PM,66.2,55.4,68,30.07,10.0,SSW,12.7,18.4,N/A,,Overcast,200,2013-03-11 19:35:00
3:55 PM,64.4,57.2,77,30.05,10.0,SSE,6.9,-,N/A,,Overcast,160,2013-03-11 19:55:00
4:15 PM,66.2,55.4,68,30.03,10.0,SSE,8.1,-,N/A,,Overcast,150,2013-03-11 20:15:00
4:35 PM,68.0,55.4,64,30.03,10.0,SSE,8.1,-,N/A,,Overcast,150,2013-03-11 20:35:00
4:55 PM,68.0,55.4,64,30.03,10.0,South,10.4,-,N/A,,Overcast,170,2013-03-11 20:55:00
5:15 PM,68.0,55.4,64,30.03,10.0,South,9.2,-,N/A,,Overcast,190,2013-03-11 21:15:00
5:35 PM,66.2,53.6,64,30.03,10.0,South,11.5,-,N/A,,Overcast,180,2013-03-11 21:35:00
5:55 PM,66.2,55.4,68,30.01,10.0,SSE,8.1,-,N/A,,Overcast,160,2013-03-11 21:55:00
6:15 PM,66.2,55.4,68,30.02,10.0,SSE,6.9,-,N/A,,Overcast,160,2013-03-11 22:15:00
6:35 PM,64.4,55.4,73,30.02,10.0,SSE,6.9,-,N/A,,Overcast,160,2013-03-11 22:35:00
6:55 PM,64.4,55.4,73,30.01,10.0,SSE,5.8,-,N/A,,Overcast,150,2013-03-11 22:55:00
7:15 PM,64.4,55.4,73,30.01,10.0,SSE,3.5,-,N/A,,Overcast,150,2013-03-11 23:15:00
7:35 PM,62.6,55.4,77,30.01,10.0,SE,4.6,-,N/A,,Overcast,140,2013-03-11 23:35:00
7:55 PM,62.6,55.4,77,30.01,10.0,SSE,4.6,-,N/A,,Overcast,150,2013-03-11 23:55:00
8:15 PM,62.6,55.4,77,30.01,10.0,South,4.6,-,N/A,,Overcast,170,2013-03-12 00:15:00
8:35 PM,62.6,55.4,77,30.00,10.0,South,3.5,-,N/A,,Overcast,180,2013-03-12 00:35:00
8:55 PM,60.8,59.0,94,29.99,10.0,South,6.9,-,N/A,,Overcast,170,2013-03-12 00:55:00
9:15 PM,60.8,59.0,94,29.98,10.0,SSE,5.8,-,N/A,,Mostly Cloudy,160,2013-03-12 01:15:00
9:35 PM,60.8,59.0,94,29.98,10.0,South,8.1,-,N/A,,Mostly Cloudy,170,2013-03-12 01:35:00
9:55 PM,60.8,59.0,94,29.98,10.0,South,5.8,-,N/A,,Mostly Cloudy,190,2013-03-12 01:55:00
10:15 PM,60.8,59.0,94,29.98,10.0,SSE,3.5,-,N/A,,Scattered Clouds,160,2013-03-12 02:15:00
10:35 PM,60.8,59.0,94,29.98,10.0,SSE,5.8,-,N/A,,Mostly Cloudy,150,2013-03-12 02:35:00
10:55 PM,62.6,59.0,88,29.97,10.0,SSE,4.6,-,N/A,,Overcast,150,2013-03-12 02:55:00
11:15 PM,60.8,59.0,94,29.95,10.0,SE,8.1,-,N/A,,Overcast,140,2013-03-12 03:15:00
11:35 PM,62.6,60.8,94,29.95,10.0,South,9.2,-,N/A,,Overcast,170,2013-03-12 03:35:00
11:55 PM,60.8,60.8,100,29.95,10.0,South,6.9,-,N/A,,Overcast,180,2013-03-12 03:55:00